RH
96 98 93 92 90 89 90 90 90 87 83 83 84 84 84 84 84 83 80 77 75 74 69 69 71 68 68 68 71 72 75 73 73 62 65 67 72 70 71 69 70 61 70
90 95 95 92 91 89 88 88 88 87 83 82 83 84 84 84 83 81 78 76 75 73 69 69 69 69 70 71 74 74 74 76 76 73 67 65 71 67 71 77 77 70 74
93 95 93 94 91 89 88 88 86 86 85 84 84 84 84 83 82 80 77 75 74 73 69 69 70 72 72 74 73 73 74 73 75 71 70 72 57 65 72 72 74 74 76
88 93 92 93 91 87 88 87 85 83 85 86 85 84 83 82 80 78 75 73 75 74 70 70 70 71 73 77 74 72 75 74 73 74 73 71 59 65 72 70 68 70 72
90 90 93 93 90 84 87 82 84 84 84 85 85 83 82 80 79 77 74 72 74 73 69 66 65 72 78 79 77 72 72 72 73 74 82 77 67 64 67 64 62 65 62
92 89 91 92 92 89 83 82 82 86 86 86 85 83 81 80 79 77 73 71 73 73 66 62 66 75 81 80 78 73 73 76 77 87 83 66 67 65 65 66 64 66 65
95 97 89 89 87 84 85 82 83 86 92 90 85 82 81 81 79 77 74 72 74 72 65 66 75 82 81 79 76 74 75 74 76 87 85 80 65 64 65 65 66 66 65
98 98 94 85 86 87 87 84 86 88 87 91 84 82 82 82 80 78 76 74 74 73 71 72 80 80 79 76 74 78 77 73 71 82 79 73 63 64 65 66 65 65 64
98 98 97 95 93 90 91 88 89 93 90 91 84 83 84 84 82 80 79 77 75 71 70 69 75 80 78 76 77 78 78 73 77 74 68 72 63 63 64 64 64 64 64
98 98 99 98 96 96 94 95 92 92 89 83 82 87 87 86 84 82 80 76 72 67 67 68 71 76 79 79 78 78 78 74 79 80 80 65 63 62 63 63 63 63 63
98 98 98 98 97 96 94 92 95 92 91 87 83 89 87 85 84 85 80 77 72 68 70 67 70 82 81 80 80 79 72 76 81 85 85 70 63 63 62 62 62 61 60
99 99 98 97 94 89 83 89 92 95 96 89 81 89 88 86 87 83 80 76 72 69 70 72 67 70 70 73 76 75 81 84 88 88 86 70 62 62 61 61 61 60 57
97 98 97 95 93 87 86 82 88 97 99 99 94 89 82 86 88 85 83 75 71 63 55 57 50 45 49 63 76 83 86 88 94 89 81 72 62 60 60 60 58 57 55
97 97 96 92 92 87 81 80 86 96 98 99 95 82 85 88 89 88 83 78 72 67 62 64 58 56 51 61 69 76 81 85 91 95 86 76 67 61 58 57 56 54 53
97 96 95 93 95 90 86 87 90 94 95 96 92 81 78 79 81 82 78 71 69 66 68 64 57 53 51 50 57 67 70 75 81 86 96 80 74 64 60 59 57 54 52
96 97 96 92 94 87 88 88 84 92 84 89 90 82 80 78 78 77 74 68 67 69 72 63 56 54 52 50 50 51 52 60 67 79 88 90 79 73 65 58 56 54 50
94 94 96 90 91 86 81 81 86 79 78 75 81 82 81 81 81 76 78 75 71 72 70 64 59 58 54 47 46 54 58 58 59 68 80 86 86 81 75 65 55 50 51
91 95 93 90 89 93 81 80 82 84 75 75 80 81 81 80 82 81 77 78 80 79 73 70 67 63 58 54 52 52 60 66 62 63 70 81 86 78 75 68 63 56 48
90 92 92 92 92 95 94 82 89 85 76 79 82 79 78 81 84 79 80 82 84 81 77 70 71 66 63 62 55 59 57 60 66 59 69 78 85 83 83 76 72 67 52
88 90 92 95 94 92 89 90 87 81 83 85 80 83 88 81 86 88 87 86 85 83 82 77 70 72 68 65 46 50 61 60 58 68 72 71 82 80 82 83 85 76 65
88 89 92 93 91 87 88 87 85 82 85 87 83 86 90 85 85 88 91 90 88 79 77 75 74 71 78 74 69 71 71 69 66 62 66 78 79 77 83 82 87 75 72
91 85 88 86 83 77 71 74 72 75 82 83 92 89 86 92 90 89 90 88 87 81 83 82 78 84 80 78 71 72 68 72 80 69 70 65 79 70 74 75 77 69 66
93 88 88 87 86 81 64 68 76 74 79 86 92 94 91 90 92 90 92 92 92 89 85 86 81 80 84 83 74 71 86 84 77 76 73 66 60 65 63 63 66 65 66
94 94 86 85 84 84 81 70 74 78 78 81 84 86 91 92 91 93 93 94 93 91 92 85 85 87 88 93 93 93 91 88 89 82 66 69 70 65 64 69 67 59 58
91 93 85 81 76 74 74 76 78 77 77 80 84 84 86 93 92 90 92 94 94 93 86 90 93 93 92 94 94 97 95 96 93 92 91 84 75 66 66 68 68 68 62
92 88 80 76 71 68 72 83 76 84 88 89 87 84 88 87 93 93 91 94 92 92 94 93 94 95 95 95 96 92 95 95 97 97 97 92 83 67 56 58 67 70 70
Wind_Speed
6 8 11 13 15 20 22 27 25 10 20 25 25 26 24 25 24 24 24 24 25 25 26 25 25 25 25 25 24 23 21 20 18 20 21 22 22 21 22 21 18 14 20
4 6 13 10 14 18 20 21 24 22 17 24 24 26 24 24 25 26 26 25 25 26 27 26 26 26 25 24 23 23 23 21 20 20 20 22 21 21 21 21 21 20 23
1 2 7 12 10 15 19 19 17 25 21 22 24 25 24 24 24 25 25 25 25 26 27 26 25 25 25 23 22 22 23 22 20 20 19 8 13 20 20 22 23 24 23
4 3 6 16 12 12 12 15 21 20 17 23 25 25 25 24 22 23 24 25 24 26 27 25 23 21 17 22 22 22 22 22 20 17 8 7 11 20 21 21 22 21 22
6 5 11 26 9 8 7 8 11 17 13 21 25 25 25 25 20 22 24 25 25 25 25 24 21 21 23 22 21 22 23 23 20 13 8 7 7 17 21 21 20 20 20
2 7 5 16 17 8 6 10 20 20 21 15 23 26 25 26 21 21 23 24 24 24 25 22 20 24 22 22 22 22 23 21 16 8 7 13 8 21 22 21 21 21 21
2 6 8 9 16 16 14 11 15 19 19 22 25 25 25 24 21 20 21 23 24 23 23 22 22 24 22 22 22 22 22 20 10 7 7 6 11 21 22 21 21 21 21
4 3 10 19 12 10 3 5 13 16 22 20 24 24 25 22 19 19 20 22 22 22 22 22 22 23 22 21 22 20 19 18 11 7 7 7 19 21 22 21 20 20 20
5 6 7 8 12 18 6 16 21 22 28 29 23 24 23 23 19 20 18 21 20 21 22 22 22 22 22 21 20 18 16 17 8 6 7 5 20 20 21 20 19 19 20
7 7 8 6 6 8 3 19 21 32 20 27 26 19 24 20 18 17 17 19 20 20 21 20 19 18 21 20 19 16 16 15 7 7 4 8 19 19 20 20 19 18 19
5 6 6 6 6 5 6 14 23 20 27 27 25 20 17 10 10 8 13 18 19 19 20 20 19 20 21 20 17 16 14 4 6 4 3 16 19 19 18 19 18 17 17
6 5 5 7 6 10 10 9 13 14 9 12 14 13 10 9 6 7 11 16 18 19 18 18 19 19 14 7 7 11 4 5 4 4 3 15 18 18 18 17 16 16 15
5 5 5 7 7 9 9 10 6 6 5 3 7 11 11 7 6 4 4 4 5 11 5 8 11 7 7 5 4 5 5 4 3 3 6 13 16 16 16 15 15 14 14
6 6 6 6 6 9 8 9 10 7 6 4 6 12 9 6 5 4 3 3 4 3 6 6 6 6 7 7 7 6 6 4 3 3 5 10 14 15 15 14 13 12 11
10 8 7 6 6 6 9 8 6 8 7 6 6 8 8 8 7 4 3 4 4 4 5 5 5 6 6 6 6 6 5 5 5 3 2 10 10 12 12 12 11 9 9
9 9 7 7 5 8 7 9 7 5 7 8 6 6 7 8 7 6 4 5 4 4 5 4 5 5 5 5 6 6 6 5 5 5 3 4 10 10 11 10 9 8 7
8 10 10 11 7 8 11 9 8 7 7 8 7 9 8 8 7 7 4 4 4 4 6 5 5 4 5 3 5 4 5 5 5 6 5 4 5 9 10 10 10 7 7
9 11 10 10 11 8 9 8 8 6 7 7 7 8 8 7 6 5 5 4 4 4 4 4 4 4 4 4 4 4 4 5 6 6 4 4 4 3 7 9 10 10 8
9 9 11 10 11 8 5 5 4 5 5 5 5 6 8 8 7 6 5 5 6 4 4 5 2 4 3 3 3 3 3 4 5 4 5 6 6 5 4 9 11 11 11
11 9 10 8 11 7 3 3 2 3 3 4 5 5 6 6 7 6 4 5 5 4 4 3 3 1 3 4 3 2 2 3 3 5 6 4 5 6 6 6 5 6 11
11 11 10 12 11 9 5 5 3 4 3 3 5 7 8 7 8 6 4 4 5 6 6 5 3 4 1 3 3 2 1 4 4 4 3 4 6 7 6 6 4 4 4
11 12 10 11 13 11 8 6 3 3 2 3 4 5 6 6 7 7 7 6 5 4 6 6 5 3 3 4 4 2 2 3 4 5 3 4 5 3 5 6 6 6 5
11 13 10 10 11 9 12 4 2 3 3 2 2 2 5 6 6 6 6 6 6 5 6 7 6 7 5 2 3 4 2 5 1 0 5 4 5 4 4 5 6 6 6
12 8 9 8 9 9 7 7 6 4 4 3 4 3 4 7 7 7 7 7 7 5 5 7 6 5 5 5 1 1 3 3 3 3 1 2 4 5 6 4 5 5 5
12 12 10 9 11 12 11 6 6 4 4 3 3 5 5 6 8 9 8 7 7 6 8 7 6 6 5 4 4 3 2 1 1 2 3 3 2 3 4 5 5 4 6
7 9 11 12 12 14 14 10 10 9 7 6 5 6 5 5 5 8 9 9 9 9 8 8 8 8 7 5 4 5 5 4 4 3 3 3 2 2 3 3 4 4 4
Wind_Direction
159 144 149 143 134 127 124 123 114 117 123 124 128 128 131 129 127 123 119 119 117 116 114 112 109 106 104 102 99 94 89 90 92 94 90 87 86 84 76 80 78 78 67
248 150 143 142 131 117 117 117 122 133 139 130 132 132 133 133 131 128 126 124 120 117 116 113 111 109 106 105 102 98 91 82 80 82 83 91 88 84 83 82 85 83 76
58 129 132 109 110 111 113 113 118 135 142 138 137 135 134 135 132 131 127 123 122 120 118 117 117 115 115 102 99 98 96 91 87 86 76 64 85 88 81 81 78 75 73
176 74 102 56 349 101 112 114 127 130 144 143 140 137 135 131 133 129 125 122 121 122 120 117 114 113 119 116 105 103 101 97 89 77 61 55 85 87 82 77 79 74 74
203 148 139 110 302 29 104 118 109 112 158 152 142 136 133 129 135 130 125 125 123 121 119 116 112 112 111 109 108 107 102 98 89 77 70 66 76 85 82 83 77 78 78
307 124 203 142 162 130 220 169 156 154 165 185 143 137 137 134 138 133 128 122 122 121 116 112 116 120 114 112 113 111 108 101 91 72 66 88 87 90 88 83 83 80 78
18 131 181 171 116 97 98 165 176 171 161 192 144 137 137 135 138 129 124 118 118 116 114 108 117 121 118 115 112 109 106 103 94 88 81 78 90 92 91 87 88 84 82
357 205 149 148 130 86 94 169 184 184 178 174 140 140 136 130 133 123 121 116 116 117 112 106 111 117 118 116 115 113 112 108 96 88 85 92 98 98 93 92 88 87 84
28 86 107 135 109 61 360 224 202 192 176 161 144 141 133 124 127 121 122 118 117 113 110 103 108 122 121 121 115 112 112 109 100 96 92 88 102 102 100 96 92 87 85
36 49 76 84 125 118 66 92 153 148 162 149 145 135 123 114 119 128 126 117 113 110 109 103 103 121 130 124 120 123 115 108 101 101 98 109 108 104 103 99 95 92 89
69 47 64 87 102 100 113 119 109 143 161 151 138 118 99 116 121 128 128 117 113 112 107 102 98 110 127 127 124 124 113 110 107 105 114 117 114 111 109 109 105 98 93
119 90 107 114 131 123 121 123 122 131 135 162 138 121 119 112 132 129 123 120 115 114 109 100 100 104 115 114 123 116 115 117 108 113 106 122 120 117 116 114 110 103 96
133 115 122 135 139 127 127 126 131 129 109 96 141 121 121 115 119 116 116 105 111 106 97 93 100 95 104 125 106 112 117 111 117 115 126 128 125 121 120 118 115 111 104
144 133 133 142 127 136 139 138 145 142 127 134 158 128 122 128 116 111 117 119 104 99 95 89 96 115 95 115 125 121 126 134 141 132 145 140 137 134 129 126 123 115 110
152 159 149 136 130 143 138 145 151 152 148 153 137 134 140 139 140 121 131 125 126 115 108 102 117 104 108 115 119 126 140 145 143 127 127 148 147 146 143 141 138 129 120
155 159 138 147 149 156 151 141 155 168 145 151 151 143 138 145 136 144 155 136 132 121 115 138 125 119 121 123 127 149 159 152 151 153 172 169 165 163 158 157 156 152 148
166 159 158 160 164 175 165 155 168 181 169 157 155 146 146 137 149 154 144 147 145 127 133 117 104 104 113 106 130 151 156 161 164 171 178 185 180 176 171 176 167 160 153
162 166 163 162 168 177 180 172 176 159 175 168 157 148 150 148 148 158 138 172 152 154 139 127 134 127 133 150 152 174 167 172 175 178 179 183 180 173 171 158 164 172 172
168 166 167 165 171 170 171 157 153 137 165 150 144 151 166 163 166 164 156 184 158 153 140 147 141 139 152 162 178 177 199 190 186 173 190 188 187 179 174 177 174 182 182
173 169 167 155 162 174 136 117 117 136 136 151 160 167 156 167 171 169 167 186 155 149 146 152 143 123 151 169 157 212 252 257 230 200 201 186 185 185 186 192 180 194 189
174 179 163 165 163 174 167 168 169 165 147 154 164 173 171 183 185 166 177 173 164 168 177 170 133 161 144 118 95 22 283 262 251 257 254 215 195 202 195 201 199 190 205
174 182 182 172 170 182 181 188 183 144 150 165 175 172 178 174 174 178 184 181 182 150 157 164 152 138 166 162 150 145 241 295 250 230 209 237 238 237 208 213 198 195 200
186 183 181 179 166 181 185 145 99 90 85 133 159 181 199 187 180 186 187 170 175 169 184 186 177 168 167 150 193 152 153 220 350 89 231 198 209 209 232 217 209 209 199
192 186 173 185 172 182 181 179 188 179 171 182 166 179 198 197 197 191 189 185 182 181 186 195 185 177 147 165 124 4 23 112 189 284 242 206 195 212 232 241 228 226 221
182 180 177 177 183 191 195 189 188 185 180 176 175 189 211 211 204 202 197 189 189 193 205 188 182 193 201 155 166 153 127 93 104 152 238 240 280 222 203 191 206 201 210
183 180 179 180 188 187 190 198 191 189 182 183 200 202 204 214 212 208 205 199 201 204 196 199 207 197 193 196 172 171 164 168 189 186 212 233 207 250 246 205 204 217 207